Torna al catalogo

ONEWEB-0025

AttivoComunicazioniPO
NORAD 45138·PAYLOAD·🇬🇧 United Kingdom

Lanciato Feb 6, 2020 da Baikonur Cosmodrome

Loading…

Prossimi Passaggi (prossime 24 ore)

TLE

AggiornatoSource: CelesTrak SupGP

Epoca: Sep 14, 2026, 13:23 UTC

1 45138C 20008H   26257.55815232 -.00002518  00000+0 -72214-2 0  2576
2 45138  87.8925  18.4607 0001371 112.5953 358.0086 13.10379106    18

Traccia ONEWEB-0025 in tempo reale con AllMySat

Download on the App Store